Weather History for Hastings, NE

Change the Weather History Date:

Tuesday, October 29, 2013

  Actual Average Record
Temperature  
Mean Temperature 43 °F 47 °F  
Max Temperature 46 °F 59 °F 91 °F (1937)
Min Temperature 40 °F 35 °F 9 °F (1913)
Degree Days  
Heating Degree Days 22 18  
Month to date heating degree days 369 359  
Since 1 July heating degree days 404 455  
Cooling Degree Days 0 0  
Month to date cooling degree days 15 11  
Year to date cooling degree days 1158 1074  
Moisture  
Dew Point 42 °F    
Average Humidity 96    
Maximum Humidity 100    
Minimum Humidity 92    
Precipitation  
Precipitation 0.07 in 0.05 in 1.60 in (1979)
Month to date precipitation 4.74 1.91  
Year to date precipitation 24.06 25.13  
Snow  
Snow 0.00 in 0.10 in 7.20 in (1925)
Month to date snowfall 0.0 0.9  
Since 1 July snowfall 0.0 1.1  
Since 1 September snowfall 0.0 1.1  
Snow Depth 0.00 in    
Sea Level Pressure  
Sea Level Pressure 30.01 in    
Wind  
Wind Speed 10 mph (NE)    
Max Wind Speed 16 mph    
Max Gust Speed 21 mph    
Visibility 2 miles    
Events Fog , Rain    
T = Trace of Precipitation, MM = Missing Value Source: NWS Daily Summary

Daily Weather History Graph

Daily Weather History Graph

Search for Another Location

Airport:

Trip Planner

Search our weather history database for the weather conditions in past years. The results will help you decide how hot, cold, wet, or windy it might be!

Date:

Astronomy

Oct. 29, 2013 Rise Set
Actual Time 8:00 AM CDT 6:33 PM CDT
Civil Twilight 7:32 AM CDT 7:01 PM CDT
Nautical Twilight 7:00 AM CDT 7:33 PM CDT
Astronomical Twilight 6:28 AM CDT 8:05 PM CDT
Moon 2:50 AM CDT (10/29) 3:49 PM CDT (10/29)
Length of Visible Light 11h 29m
Length of Day
10h 32m
Waning Crescent, 25% of the Moon is Illuminated
Oct 29
Waning Crescent
Nov 3
New
Nov 9
First Quarter
Nov 17
Full
Nov 25
Last Quarter

Hourly Weather History & Observations

Time (CDT) Temp. Windchill Dew Point Humidity Pressure Visibility Wind Dir Wind Speed Gust Speed Precip Events Conditions
12:03 AM 42.8 °F 37.0 °F 39.2 °F 87% 30.09 in 7.0 mi ENE 10.4 mph - 0.00 in Rain Light Rain
12:53 AM 43.0 °F 36.0 °F 39.9 °F 89% 30.08 in 7.0 mi East 13.8 mph - 0.01 in   Overcast
1:26 AM 42.8 °F 36.2 °F 39.2 °F 87% 30.05 in 7.0 mi East 12.7 mph - N/A   Overcast
1:53 AM 43.0 °F 36.0 °F 41.0 °F 93% 30.07 in 2.5 mi East 13.8 mph - N/A   Overcast
2:03 AM 42.8 °F 36.6 °F 41.0 °F 93% 30.05 in 3.0 mi East 11.5 mph - N/A   Overcast
2:13 AM 42.8 °F 36.6 °F 41.0 °F 93% 30.05 in 2.5 mi East 11.5 mph - N/A   Overcast
2:23 AM 42.8 °F 35.8 °F 41.0 °F 93% 30.05 in 3.0 mi East 13.8 mph - N/A   Overcast
2:53 AM 43.0 °F 36.8 °F 41.0 °F 93% 30.06 in 3.0 mi East 11.5 mph - N/A   Overcast
3:14 AM 42.8 °F 37.5 °F 41.0 °F 93% 30.03 in 2.5 mi East 9.2 mph - N/A   Overcast
3:53 AM 43.0 °F 37.7 °F 42.1 °F 97% 30.04 in 2.0 mi East 9.2 mph - N/A   Overcast
4:08 AM 42.8 °F 36.6 °F 42.8 °F 100% 30.01 in 1.5 mi East 11.5 mph - N/A   Overcast
4:53 AM 44.1 °F 39.5 °F 43.0 °F 96% 30.03 in 1.0 mi East 8.1 mph - N/A   Overcast
5:06 AM 44.6 °F 39.7 °F 42.8 °F 93% 30.00 in 0.8 mi ENE 9.2 mph - 0.01 in Rain Light Rain
5:19 AM 44.6 °F 40.2 °F 42.8 °F 93% 30.00 in 1.2 mi East 8.1 mph - 0.01 in Rain Light Rain
5:53 AM 44.1 °F 40.1 °F 43.0 °F 96% 30.02 in 1.0 mi East 6.9 mph - 0.01 in   Overcast
6:33 AM 44.6 °F 40.2 °F 42.8 °F 93% 30.01 in 0.8 mi ENE 8.1 mph - N/A   Overcast
6:53 AM 44.1 °F 39.5 °F 43.0 °F 96% 30.03 in 1.0 mi ENE 8.1 mph - N/A   Overcast
7:22 AM 44.6 °F 39.7 °F 42.8 °F 93% 30.00 in 0.8 mi ENE 9.2 mph - N/A   Mist
7:53 AM 44.1 °F 39.5 °F 43.0 °F 96% 30.02 in 0.5 mi ENE 8.1 mph - N/A Fog Fog
8:53 AM 44.1 °F 39.5 °F 43.0 °F 96% 30.02 in 0.2 mi ENE 8.1 mph - N/A Fog Fog
9:53 AM 45.0 °F 41.2 °F 44.1 °F 97% 30.04 in 0.2 mi NE 6.9 mph - 0.01 in Fog , Rain Light Rain
10:53 AM 45.0 °F 40.6 °F 44.1 °F 97% 30.03 in 0.2 mi NE 8.1 mph - 0.01 in Fog , Rain Light Rain
11:53 AM 45.0 °F 40.1 °F 44.1 °F 97% 30.02 in 0.5 mi NE 9.2 mph - 0.01 in Fog , Rain Light Rain
12:07 PM 44.6 °F 40.2 °F 44.6 °F 100% 30.00 in 1.0 mi NE 8.1 mph - 0.01 in Rain Light Rain
12:53 PM 45.0 °F 39.3 °F 44.1 °F 97% 30.01 in 1.0 mi NNE 11.5 mph - 0.01 in   Overcast
1:53 PM 46.0 °F 41.0 °F 44.1 °F 93% 29.99 in 1.2 mi NNE 10.4 mph - N/A   Overcast
2:40 PM 44.6 °F 38.8 °F 44.6 °F 100% 29.94 in 0.8 mi NNE 11.5 mph - N/A   Overcast
2:53 PM 45.0 °F 39.3 °F 44.1 °F 97% 29.96 in 0.5 mi NNE 11.5 mph - N/A Fog Fog
3:53 PM 45.0 °F 39.7 °F 44.1 °F 97% 29.96 in 0.5 mi North 10.4 mph - 0.00 in Fog , Rain Light Rain
4:26 PM 44.6 °F 39.2 °F 42.8 °F 93% 29.94 in 1.0 mi North 10.4 mph - 0.01 in Rain Light Rain
4:53 PM 44.1 °F 39.0 °F 43.0 °F 96% 29.97 in 1.2 mi North 9.2 mph - 0.01 in Rain Light Rain
5:53 PM 44.1 °F 38.6 °F 43.0 °F 96% 29.96 in 2.0 mi NNE 10.4 mph - 0.00 in   Overcast
6:34 PM 44.6 °F 38.8 °F 42.8 °F 93% 29.94 in 3.0 mi NNE 11.5 mph - N/A   Overcast
6:53 PM 44.1 °F 38.6 °F 42.1 °F 93% 29.98 in 3.0 mi North 10.4 mph - N/A   Overcast
7:10 PM 44.6 °F 38.8 °F 42.8 °F 93% 29.96 in 2.5 mi North 11.5 mph - N/A   Overcast
7:53 PM 43.0 °F 37.2 °F 42.1 °F 97% 30.00 in 2.5 mi North 10.4 mph - 0.01 in Rain Light Rain
8:12 PM 42.8 °F 37.0 °F 42.8 °F 100% 29.98 in 3.0 mi North 10.4 mph - 0.00 in Rain Light Rain
8:53 PM 42.1 °F 35.2 °F 41.0 °F 96% 30.02 in 5.0 mi North 12.7 mph - 0.00 in   Overcast
9:34 PM 41.0 °F 33.5 °F 39.2 °F 93% 29.99 in 2.0 mi NNW 13.8 mph - 0.00 in   Overcast
9:53 PM 41.0 °F 33.5 °F 39.9 °F 96% 30.03 in 2.5 mi NNW 13.8 mph - 0.00 in   Overcast
10:05 PM 41.0 °F 33.9 °F 39.2 °F 93% 30.00 in 3.0 mi NNW 12.7 mph - N/A   Overcast
10:53 PM 39.9 °F 33.9 °F 39.0 °F 97% 30.04 in 9.0 mi North 9.2 mph - N/A   Overcast
11:53 PM 39.9 °F 33.9 °F 39.0 °F 97% 30.03 in 9.0 mi North 9.2 mph - N/A   Overcast